Home   Weather   Bern   Past weeks

Flag for Switzerland Past Weather in Bern, Bern, Switzerland — Yesterday and Last 2 Weeks

Now
54 °F

Passing clouds.


Feels Like: 53 °F
Forecast: 29 / 64 °F
Wind: 5 mph from North

Location: Bern / Belp

Current Time: Apr 29, 2017 at 1:26:34 pm

Latest Report: Apr 29, 2017 at 12:50 pm


Visibility: N/A

Pressure: 30.01 "Hg (28.15 "Hg at 533m altitude)

Humidity: 51%

Dew Point: 36 °F

Location of BernLocation

Past Weather in Bern — Graph

°F

Bern Temperature Yesterday

Maximum temperature yesterday: 46 °F (at 12:50 pm)
Minimum temperature yesterday: 32 °F (at 3:50 am)
Average temperature yesterday: 38 °F

High & Low Weather Summary for the Past Weeks

 TemperatureHumidityPressure
High70 °F (Apr 24, 4:50 pm)100% (Apr 15, 7:20 am)30.45 "Hg (Apr 15, 7:20 am)
Low21 °F (Apr 21, 5:50 am)23% (Apr 21, 4:50 pm)29.68 "Hg (Apr 25, 10:20 pm)
Average44 °F74%30.09 "Hg
* Reported Apr 14 12:20 pm — Apr 29 12:20 pm, Bern, Weather by CustomWeather, © 2017

Note: Actual official high and low records may vary slightly from our data, if they occured in-between our weather recording intervals... More about our weather records

Advertising

Bern Weather History for the Previous 24 Hours

Scroll right to see more
 ConditionsComfort  
Time TempWeatherWind HumidityBarometerVisibility
12:20 pm
Sat, Apr 29
50 °FPassing clouds.7 mph58%30.04 "HgN/A
11:50 am50 °FPassing clouds.5 mph54%30.04 "HgN/A
11:20 am48 °FSunny.5 mph58%30.04 "Hg10 mi
10:50 am46 °FSunny.5 mph62%30.04 "Hg10 mi
10:20 am45 °FSunny.5 mph66%30.07 "Hg10 mi
9:50 am41 °FPassing clouds.6 mph76%30.07 "HgN/A
9:20 am41 °FSunny.7 mph76%30.07 "Hg10 mi
8:50 am39 °FPassing clouds.6 mph81%30.07 "HgN/A
8:20 am36 °FPassing clouds.6 mph87%30.07 "HgN/A
7:50 am34 °FSunny.6 mph93%30.07 "Hg10 mi
7:20 am30 °FSunny.5 mph100%30.07 "Hg10 mi
6:50 am28 °FSunny.5 mph100%30.07 "Hg10 mi
6:20 am28 °FSunny.6 mph100%30.07 "Hg10 mi
5:50 am28 °FPassing clouds.6 mph93%30.07 "HgN/A
5:20 am28 °FPassing clouds.6 mph100%30.07 "Hg6 mi
4:50 am28 °FChilly.6 mph100%30.09 "Hg4 mi
4:20 am28 °FChilly.6 mph100%30.09 "Hg4 mi
3:50 am28 °FChilly.5 mph100%30.09 "Hg4 mi
3:20 am28 °FChilly.1 mph100%30.09 "Hg4 mi
2:50 am30 °FChilly.2 mph93%30.09 "Hg4 mi
2:20 am30 °FPassing clouds.2 mph100%30.09 "Hg4 mi
1:50 am28 °FChilly.3 mph100%30.09 "Hg3 mi
1:20 am30 °FIce fog.1 mph93%30.09 "Hg3 mi
12:50 am32 °FChilly.2 mph100%30.09 "Hg5 mi
12:20 am30 °FPassing clouds.3 mph100%30.09 "Hg4 mi
11:50 pm
Fri, Apr 28
32 °FChilly.5 mph93%30.09 "HgN/A
11:20 pm32 °FPassing clouds.5 mph93%30.09 "HgN/A
10:50 pm34 °FClear.5 mph93%30.09 "Hg10 mi
10:20 pm34 °FPassing clouds.5 mph93%30.07 "HgN/A
9:50 pm36 °FPassing clouds.5 mph93%30.07 "HgN/A
9:20 pm37 °FPassing clouds.5 mph87%30.07 "HgN/A
8:50 pm39 °FPassing clouds.5 mph81%30.07 "HgN/A
8:20 pm41 °FBroken clouds.3 mph76%30.04 "HgN/A
7:50 pm41 °FDrizzle. Partly sunny.6 mph81%30.04 "HgN/A
7:20 pm43 °FDrizzle. Partly sunny.3 mph81%30.04 "HgN/A
6:50 pm43 °FPartly sunny.5 mph76%30.04 "HgN/A
6:20 pm45 °FBroken clouds.8 mph76%30.04 "HgN/A
5:50 pm43 °FBroken clouds.5 mph81%30.04 "HgN/A
5:20 pm39 °FLight rain. Broken clouds.3 mph81%30.04 "HgN/A
4:50 pm39 °FLight rain. Broken clouds.12 mph87%30.01 "HgN/A
4:20 pm46 °FBroken clouds.3 mph62%30.01 "HgN/A
3:50 pm46 °FBroken clouds.6 mph66%30.01 "HgN/A
3:20 pm46 °FLight rain. Partly sunny.8 mph71%30.01 "HgN/A
2:50 pm45 °FMore clouds than sun.7 mph71%30.01 "HgN/A
2:20 pm43 °FLight rain. Broken clouds.10 mph71%30.01 "HgN/A
1:50 pm45 °FBroken clouds.6 mph81%29.98 "HgN/A
1:20 pm45 °FBroken clouds.6 mph76%29.98 "HgN/A
Weather by CustomWeather, © 2017

See weather overviewHow to use our weather pages